• Currently

    Reported at Minneapolis, Minneapolis-St. Paul International Airport, MN
    6:53 PM CST WED APR 26 2017
  • 39°F4°C
  • Drizzle
    Drizzle
  • Feels Like:33°F0°CDew Point:32°F0°CHumidity:75% Winds:N 12 mph 19 kph
    Pressure:29.56 in1001 hPaVisibility:10.00 miles16090.00 meters
Time Weather Temp Dew Point
Humidity Winds Visibility Pressure Precipitation
1 hr 24 hr
Sunday, April 16
23:53 23:53 Mostly Cloudy Mostly Cloudy 53°F12°C 49°F9°C 86% WNW 12 mphWNW 19 kph 10.0 miles16.1 km 29.85 in1011 hPa 0.00 in0.00 mm --
22:53 22:53 Partly Cloudy Partly Cloudy 54°F12°C 50°F10°C 87% WNW 12 mphWNW 19 kph 10.0 miles16.1 km 29.85 in1011 hPa 0.00 in0.00 mm --
21:53 21:53 Mostly Cloudy Mostly Cloudy 55°F13°C 49°F9°C 80% N 12 mphN 19 kph 10.0 miles16.1 km 29.8 in1009 hPa 0.01 in6.45 mm --
20:53 20:53 Mostly Cloudy Mostly Cloudy 57°F14°C 49°F9°C 74% N 12 mphN 19 kph 10.0 miles16.1 km 29.8 in1009 hPa 0.00 in0.00 mm --
19:53 19:53 Mostly Cloudy Mostly Cloudy 57°F14°C 51°F11°C 81% N 17 mphN 28 kph 10.0 miles16.1 km 29.8 in1009 hPa 0.17 in109.68 mm --
19:49 19:49 Mostly Cloudy With Nearby Thunderstorms Mostly Cloudy With Nearby Thunderstorms 57°F14°C 52°F11°C 82% N 17 mphN 28 kph 10.0 miles16.1 km 29.8 in1009 hPa 0.17 in109.68 mm --
18:53 18:53 Cloudy With Light Thunderstorms Cloudy With Light Thunderstorms 65°F18°C 58°F14°C 78% N 12 mphN 19 kph 4.0 miles6.4 km 29.77 in1008 hPa 0.01 in6.45 mm --
18:46 18:46 Cloudy With Light Thunderstorms Cloudy With Light Thunderstorms 66°F19°C 57°F14°C 73% N 12 mphN 19 kph 10.0 miles16.1 km 29.77 in1008 hPa 0.00 in0.00 mm --
18:34 18:34 Cloudy With Nearby Thunderstorms Cloudy With Nearby Thunderstorms 68°F20°C 55°F13°C 64% N 13 mphN 20 kph 10.0 miles16.1 km 29.77 in1008 hPa 0.00 in0.00 mm --
17:53 17:53 Mostly Cloudy Mostly Cloudy 70°F21°C 57°F14°C 64% N 8 mphN 13 kph 10.0 miles16.1 km 29.74 in1007 hPa 0.00 in0.00 mm --
16:53 16:53 Mostly Cloudy Mostly Cloudy 71°F22°C 55°F13°C 57% CalmCalm 10.0 miles16.1 km 29.77 in1008 hPa 0.00 in0.00 mm --
15:53 15:53 Mostly Cloudy Mostly Cloudy 70°F21°C 54°F12°C 57% WSW 6 mphWSW 9 kph 10.0 miles16.1 km 29.77 in1008 hPa 0.00 in0.00 mm --
14:53 14:53 Cloudy Cloudy 69°F21°C 55°F13°C 61% CalmCalm 10.0 miles16.1 km 29.77 in1008 hPa 0.00 in0.00 mm --
13:53 13:53 Mostly Cloudy Mostly Cloudy 68°F20°C 56°F13°C 65% CalmCalm 10.0 miles16.1 km 29.77 in1008 hPa 0.00 in0.00 mm --
13:24 13:24 Mostly Cloudy Mostly Cloudy 66°F19°C 57°F14°C 73% N 5 mphN 7 kph 10.0 miles16.1 km 29.77 in1008 hPa 0.00 in0.00 mm --
13:16 13:16 Mostly Cloudy Mostly Cloudy 66°F19°C 56°F13°C 70% NNW 3 mphNNW 6 kph 10.0 miles16.1 km 29.8 in1009 hPa 0.00 in0.00 mm --
13:05 13:05 Mostly Cloudy Mostly Cloudy 67°F19°C 57°F14°C 71% NW 7 mphNW 11 kph 10.0 miles16.1 km 29.77 in1008 hPa 0.00 in0.00 mm --
12:53 12:53 Cloudy Cloudy 66°F19°C 57°F14°C 73% WNW 6 mphWNW 9 kph 10.0 miles16.1 km 29.8 in1009 hPa 0.00 in0.00 mm --
12:45 12:45 Cloudy Cloudy 65°F18°C 56°F13°C 73% NNW 6 mphNNW 9 kph 10.0 miles16.1 km 29.8 in1009 hPa 0.00 in0.00 mm --
12:21 12:21 Mostly Cloudy Mostly Cloudy 65°F18°C 57°F14°C 76% N 6 mphN 9 kph 10.0 miles16.1 km 29.77 in1008 hPa 0.00 in0.00 mm --
12:12 12:12 Mostly Cloudy Mostly Cloudy 64°F18°C 57°F14°C 78% N 7 mphN 11 kph 10.0 miles16.1 km 29.77 in1008 hPa 0.00 in0.00 mm --
11:53 11:53 Mostly Cloudy Mostly Cloudy 65°F18°C 58°F14°C 78% N 10 mphN 17 kph 10.0 miles16.1 km 29.77 in1008 hPa 0.00 in0.00 mm --
11:36 11:36 Mostly Cloudy Mostly Cloudy 63°F17°C 57°F14°C 83% N 10 mphN 17 kph 10.0 miles16.1 km 29.77 in1008 hPa 0.00 in0.00 mm --
10:53 10:53 Mostly Cloudy Mostly Cloudy 61°F16°C 58°F14°C 90% SE 16 mphSE 26 kph 9.0 miles14.5 km 29.68 in1005 hPa 0.01 in6.45 mm --
10:28 10:28 Cloudy With Mist And Fog Cloudy With Mist And Fog 61°F16°C 57°F14°C 88% S 7 mphS 11 kph 6.0 miles9.7 km 29.77 in1008 hPa 0.00 in0.00 mm --
09:53 09:53 Cloudy With Light Rain Cloudy With Light Rain 60°F16°C 57°F14°C 90% SW 5 mphSW 7 kph 4.0 miles6.4 km 29.77 in1008 hPa 0.20 in129.03 mm --
09:08 09:08 Cloudy With Rain Cloudy With Rain 60°F16°C 57°F14°C 90% SW 8 mphSW 13 kph 2.0 miles3.2 km 29.77 in1008 hPa 0.07 in45.16 mm --
09:00 09:00 Cloudy With Rain Cloudy With Rain 61°F16°C 57°F14°C 88% WSW 7 mphWSW 11 kph 1.8 miles2.8 km 29.77 in1008 hPa 0.00 in0.00 mm --
08:53 08:53 Cloudy With Heavy Rain Cloudy With Heavy Rain 60°F16°C 57°F14°C 90% WSW 8 mphWSW 13 kph 2.5 miles4.0 km 29.8 in1009 hPa 0.10 in64.52 mm --
07:53 07:53 Cloudy With Light Rain Cloudy With Light Rain 62°F17°C 57°F14°C 84% W 13 mphW 20 kph 3.0 miles4.8 km 29.77 in1008 hPa 0.02 in12.90 mm --
07:27 07:27 Cloudy Cloudy 61°F16°C 57°F14°C 88% SW 8 mphSW 13 kph 7.0 miles11.3 km 29.77 in1008 hPa 0.00 in0.00 mm --
06:53 06:53 Cloudy With Light Thunderstorms Cloudy With Light Thunderstorms 61°F16°C 57°F14°C 87% WNW 5 mphWNW 7 kph 6.0 miles9.7 km 29.74 in1007 hPa 0.04 in25.81 mm --
05:53 05:53 Cloudy With Mist And Fog Cloudy With Mist And Fog 59°F15°C 56°F13°C 90% S 5 mphS 7 kph 6.0 miles9.7 km 29.77 in1008 hPa 0.05 in32.26 mm --
05:39 05:39 Cloudy With Light Rain Cloudy With Light Rain 59°F15°C 56°F13°C 90% SSE 5 mphSSE 7 kph 6.0 miles9.7 km 29.77 in1008 hPa 0.04 in25.81 mm --
04:53 04:53 Cloudy With Light Thunderstorms Cloudy With Light Thunderstorms 59°F15°C 56°F13°C 90% SE 10 mphSE 17 kph 6.0 miles9.7 km 29.77 in1008 hPa 0.01 in6.45 mm --
04:37 04:37 Cloudy With Light Thunderstorms Cloudy With Light Thunderstorms 59°F15°C 56°F13°C 90% SE 9 mphSE 15 kph 6.0 miles9.7 km 29.77 in1008 hPa 0.01 in6.45 mm --
04:16 04:16 Cloudy With Light Rain Cloudy With Light Rain 59°F15°C 56°F13°C 90% SE 12 mphSE 19 kph 6.0 miles9.7 km 29.74 in1007 hPa 0.00 in0.03 mm --
03:53 03:53 Cloudy With Light Thunderstorms Cloudy With Light Thunderstorms 58°F14°C 56°F13°C 93% ESE 9 mphESE 15 kph 4.0 miles6.4 km 29.77 in1008 hPa 0.06 in38.71 mm --
02:58 02:58 Cloudy With Light Thunderstorms Cloudy With Light Thunderstorms 57°F14°C 55°F13°C 94% ESE 13 mphESE 20 kph 4.0 miles6.4 km 29.77 in1008 hPa 0.00 in0.00 mm --
02:53 02:53 Cloudy With Heavy Thunderstorms Cloudy With Heavy Thunderstorms 58°F14°C 55°F13°C 90% ESE 13 mphESE 20 kph 2.0 miles3.2 km 29.77 in1008 hPa 0.28 in180.64 mm --
02:47 02:47 Cloudy With Heavy Thunderstorms Cloudy With Heavy Thunderstorms 57°F14°C 55°F13°C 94% ESE 10 mphESE 17 kph 1.8 miles2.8 km 29.8 in1009 hPa 0.09 in58.06 mm --
02:38 02:38 Cloudy With Light Thunderstorms Cloudy With Light Thunderstorms 57°F14°C 55°F13°C 94% ESE 7 mphESE 11 kph 4.0 miles6.4 km 29.8 in1009 hPa 0.00 in0.00 mm --
02:24 02:24 Cloudy With Nearby Thunderstorms Cloudy With Nearby Thunderstorms 58°F14°C 55°F13°C 90% ESE 8 mphESE 13 kph 3.0 miles4.8 km 29.77 in1008 hPa 0.01 in6.45 mm --
02:17 02:17 Cloudy With Mist And Fog Cloudy With Mist And Fog 58°F14°C 55°F13°C 90% ESE 8 mphESE 13 kph 3.0 miles4.8 km 29.8 in1009 hPa 0.01 in6.45 mm --
01:53 01:53 Cloudy With Mist And Fog Cloudy With Mist And Fog 58°F14°C 55°F13°C 90% SE 8 mphSE 13 kph 3.0 miles4.8 km 29.8 in1009 hPa 0.04 in25.81 mm --
01:44 01:44 Cloudy With Light Rain Cloudy With Light Rain 57°F14°C 55°F13°C 94% SE 8 mphSE 13 kph 3.0 miles4.8 km 29.8 in1009 hPa 0.00 in0.00 mm --
01:12 01:12 Cloudy With Light Rain Cloudy With Light Rain 57°F14°C 55°F13°C 94% SE 8 mphSE 13 kph 4.0 miles6.4 km 29.83 in1010 hPa 0.00 in0.00 mm --
00:53 00:53 Cloudy With Light Rain Cloudy With Light Rain 58°F14°C 55°F13°C 90% SE 9 mphSE 15 kph 4.0 miles6.4 km 29.8 in1009 hPa 0.20 in129.03 mm --
00:27 00:27 Cloudy With Rain Cloudy With Rain 58°F14°C 55°F13°C 90% SE 10 mphSE 17 kph 2.0 miles3.2 km 29.83 in1010 hPa 0.16 in103.23 mm --
00:04 00:04 Cloudy With Light Rain Cloudy With Light Rain 58°F14°C 55°F13°C 90% SE 9 mphSE 15 kph 2.0 miles3.2 km 29.83 in1010 hPa 0.01 in6.45 mm --